Date String (YYYY-MM-DD hh:mm:ss) UTC,Instrument flags,absolute air pressure of the measurement (hPa),sample flow rate (lpm),inlet stack bypass flow (lpm),air temperature of the measurement (°C),ambient temperature measured by the external sensor (°C),aerosol sample conditioner tube jacket temperature (°C),OPC LED temperature (°C),internal box temperature (°C),relative humidity of the measurement (%),span deviation,mass concentration of particles derived from Lorenz-Mie calculation of OPC scattering (μg/m³),mass concentration of particles derived from Lorenz-Mie calculation of OPC scattering (μg/m³),mass concentration of particles derived from Lorenz-Mie calculation of OPC scattering (μg/m³)
DateTimeUTC,F1_M11,P_M11,Q1_M11,Q2_M11,T1_M11,T2_M11,T3_M11,T4_M11,T5_M11,U1_M11,ZSPAN_M11,X0_M11,X2_M11,X1_M11
2023-11-20 12:00:00,SystemResetWarning,0827.8,5.00,000.00,023.6,022.5,000.0,031.9,024.9,13.0,0000.0,0002.73,0001.94,0001.70
2023-11-20 12:01:00,SystemResetWarning,0827.7,4.99,000.00,023.6,022.5,000.0,031.9,024.9,13.1,0000.0,0002.71,0001.93,0001.70
2023-11-20 12:02:00,SystemResetWarning,0827.7,5.00,000.00,023.5,022.5,000.0,031.9,024.9,13.0,0000.0,0002.86,0001.92,0001.69
2023-11-20 12:03:00,SystemResetWarning,0827.7,5.01,000.00,023.5,022.5,000.0,031.9,024.9,13.0,0000.0,0003.94,0001.94,0001.70
2023-11-20 12:04:00,SystemResetWarning,0827.7,5.01,000.00,023.5,022.4,000.0,031.9,024.8,13.0,0000.0,0004.00,0001.95,0001.70
2023-11-20 12:05:00,SystemResetWarning,0827.7,5.01,000.00,023.5,022.4,000.0,031.9,024.8,13.1,0000.0,0003.92,0001.95,0001.69
2023-11-20 12:06:00,SystemResetWarning,0827.7,5.00,000.00,023.5,022.4,000.0,031.9,024.8,13.1,0000.0,0003.93,0001.96,0001.69
2023-11-20 12:07:00,SystemResetWarning,0827.7,4.99,000.00,023.5,022.4,000.0,031.9,024.8,13.1,0000.0,0003.87,0001.94,0001.70
2023-11-20 12:08:00,SystemResetWarning,0827.7,4.99,000.00,023.5,022.4,000.0,031.9,024.8,13.0,0000.0,0003.93,0001.96,0001.71
2023-11-20 12:09:00,SystemResetWarning,0827.7,4.99,000.00,023.5,022.4,000.0,031.9,024.8,13.0,0000.0,0004.44,0001.97,0001.72
2023-11-20 12:10:00,SystemResetWarning,0827.7,4.99,000.00,023.4,022.3,000.0,031.9,024.7,13.1,0000.0,0004.70,0001.98,0001.73
2023-11-20 12:11:00,SystemResetWarning,0827.7,5.00,000.00,023.4,022.3,000.0,031.8,024.7,13.1,0000.0,0004.67,0001.97,0001.73
2023-11-20 12:12:00,SystemResetWarning,0827.7,5.00,000.00,023.4,022.2,000.0,031.8,024.7,13.1,0000.0,0004.64,0001.96,0001.73
2023-11-20 12:13:00,SystemResetWarning,0827.7,5.00,000.00,023.4,022.2,000.0,031.8,024.6,13.1,0000.0,0004.52,0001.97,0001.73
2023-11-20 12:14:00,SystemResetWarning,0827.7,5.00,000.00,023.3,022.1,000.0,031.8,024.6,13.0,0000.0,0003.51,0001.98,0001.72
2023-11-20 12:15:00,SystemResetWarning,0827.7,4.99,000.00,023.3,022.1,000.0,031.8,024.5,13.0,0000.0,0003.44,0001.96,0001.72
2023-11-20 12:16:00,SystemResetWarning,0827.8,5.00,000.00,023.3,022.1,000.0,031.8,024.5,13.0,0000.0,0003.46,0001.99,0001.73
2023-11-20 12:17:00,SystemResetWarning,0827.8,5.01,000.00,023.3,022.1,000.0,031.8,024.5,13.0,0000.0,0003.36,0001.98,0001.74
2023-11-20 12:18:00,SystemResetWarning,0827.8,4.99,000.00,023.3,022.0,000.0,031.8,024.4,13.0,0000.0,0003.32,0001.97,0001.74
2023-11-20 12:19:00,SystemResetWarning,0827.8,5.00,000.00,023.2,022.0,000.0,031.7,024.5,13.1,0000.0,0003.27,0001.96,0001.73
2023-11-20 12:20:00,SystemResetWarning,0827.9,5.00,000.00,023.2,022.0,000.0,031.7,024.5,13.1,0000.0,0002.73,0001.95,0001.72
2023-11-20 12:21:00,SystemResetWarning,0828.0,5.01,000.00,023.2,022.0,000.0,031.7,024.4,13.1,0000.0,0002.45,0001.92,0001.71
2023-11-20 12:22:00,SystemResetWarning,0828.0,5.01,000.00,023.2,022.0,000.0,031.7,024.4,13.1,0000.0,0002.45,0001.93,0001.72
2023-11-20 12:23:00,SystemResetWarning,0827.9,5.00,000.00,023.2,022.0,000.0,031.7,024.4,13.1,0000.0,0002.47,0001.93,0001.72
2023-11-20 12:24:00,SystemResetWarning,0828.1,4.99,000.00,023.2,022.0,000.0,031.7,024.4,13.1,0000.0,0002.50,0001.94,0001.72
2023-11-20 12:25:00,SystemResetWarning,0828.1,4.99,000.00,023.2,022.0,000.0,031.6,024.5,13.2,0000.0,0002.38,0001.91,0001.72
2023-11-20 12:26:00,SystemResetWarning,0828.1,5.00,000.00,023.2,022.0,000.0,031.6,024.5,13.1,0000.0,0002.45,0001.92,0001.72
2023-11-20 12:27:00,SystemResetWarning,0828.2,5.00,000.00,023.2,022.0,000.0,031.6,024.5,13.1,0000.0,0002.41,0001.91,0001.71
2023-11-20 12:28:00,SystemResetWarning,0828.2,4.99,000.00,023.2,022.0,000.0,031.6,024.4,13.2,0000.0,0002.45,0001.92,0001.71
2023-11-20 12:29:00,SystemResetWarning,0828.2,5.01,000.00,023.2,022.1,000.0,031.6,024.4,13.2,0000.0,0002.49,0001.92,0001.71
2023-11-20 12:30:00,SystemResetWarning,0828.3,5.00,000.00,023.2,022.1,000.0,031.6,024.5,13.2,0000.0,0002.42,0001.90,0001.70
2023-11-20 12:31:00,SystemResetWarning,0828.4,5.00,000.00,023.2,022.1,000.0,031.6,024.5,13.3,0000.0,0003.37,0001.91,0001.70
2023-11-20 12:32:00,SystemResetWarning,0828.4,5.01,000.00,023.2,022.2,000.0,031.6,024.5,13.3,0000.0,0004.01,0001.89,0001.69
2023-11-20 12:33:00,SystemResetWarning,0828.4,4.99,000.00,023.2,022.2,000.0,031.6,024.5,13.4,0000.0,0003.99,0001.88,0001.69
2023-11-20 12:34:00,SystemResetWarning,0828.4,4.99,000.00,023.2,022.2,000.0,031.6,024.6,13.3,0000.0,0004.46,0001.88,0001.68
2023-11-20 12:35:00,SystemResetWarning,0828.4,5.00,000.00,023.2,022.3,000.0,031.6,024.6,13.3,0000.0,0004.76,0001.89,0001.68
2023-11-20 12:36:00,SystemResetWarning,0828.4,5.00,000.00,023.2,022.3,000.0,031.6,024.6,13.3,0000.0,0004.79,0001.90,0001.69
2023-11-20 12:37:00,SystemResetWarning,0828.4,5.00,000.00,023.2,022.3,000.0,031.6,024.6,13.4,0000.0,0004.76,0001.90,0001.69
2023-11-20 12:38:00,SystemResetWarning,0828.5,5.00,000.00,023.2,022.3,000.0,031.6,024.6,13.5,0000.0,0004.63,0001.86,0001.68
2023-11-20 12:39:00,SystemResetWarning,0828.6,5.00,000.00,023.2,022.3,000.0,031.6,024.6,13.6,0000.0,0004.63,0001.85,0001.68
2023-11-20 12:40:00,SystemResetWarning,0828.6,5.00,000.00,023.3,022.3,000.0,031.6,024.6,14.0,0000.0,0004.57,0001.84,0001.68
2023-11-20 12:41:00,SystemResetWarning,0828.5,5.00,000.00,023.3,022.3,000.0,031.6,024.6,14.2,0000.0,0004.59,0001.86,0001.69
2023-11-20 12:42:00,SystemResetWarning,0828.6,5.01,000.00,023.3,022.3,000.0,031.6,024.6,14.2,0000.0,0004.04,0001.85,0001.69
2023-11-20 12:43:00,SystemResetWarning,0828.6,4.99,000.00,023.3,022.4,000.0,031.6,024.6,14.3,0000.0,0002.93,0001.85,0001.70
2023-11-20 12:44:00,SystemResetWarning,0828.5,5.00,000.00,023.3,022.4,000.0,031.6,024.6,14.3,0000.0,0002.94,0001.85,0001.68
2023-11-20 12:45:00,SystemResetWarning,0828.6,5.00,000.00,023.3,022.4,000.0,031.6,024.6,14.4,0000.0,0002.53,0001.84,0001.69
2023-11-20 12:46:00,SystemResetWarning,0828.6,5.00,000.00,023.3,022.4,000.0,031.6,024.7,14.3,0000.0,0002.28,0001.85,0001.69
2023-11-20 12:47:00,SystemResetWarning,0828.6,5.00,000.00,023.3,022.4,000.0,031.6,024.6,14.3,0000.0,0002.36,0001.87,0001.70
2023-11-20 12:48:00,SystemResetWarning,0828.6,5.00,000.00,023.3,022.4,000.0,031.6,024.6,14.3,0000.0,0002.48,0001.91,0001.72
2023-11-20 12:49:00,SystemResetWarning,0828.6,5.00,000.00,023.3,022.4,000.0,031.6,024.6,14.3,0000.0,0002.57,0001.96,0001.74
2023-11-20 12:50:00,SystemResetWarning,0828.6,4.99,000.00,023.3,022.4,000.0,031.6,024.7,14.3,0000.0,0002.64,0001.99,0001.76
2023-11-20 12:51:00,SystemResetWarning,0828.6,5.00,000.00,023.3,022.4,000.0,031.6,024.7,14.3,0000.0,0002.66,0002.01,0001.78
2023-11-20 12:52:00,SystemResetWarning,0828.6,5.00,000.00,023.3,022.4,000.0,031.6,024.7,14.2,0000.0,0002.67,0002.02,0001.79
2023-11-20 12:53:00,SystemResetWarning,0828.7,5.01,000.00,023.3,022.5,000.0,031.6,024.7,14.0,0000.0,0002.67,0002.02,0001.81
2023-11-20 12:54:00,SystemResetWarning,0828.7,5.00,000.00,023.3,022.5,000.0,031.6,024.7,14.0,0000.0,0002.87,0002.07,0001.82
2023-11-20 12:55:00,SystemResetWarning,0828.7,5.01,000.00,023.3,022.5,000.0,031.6,024.7,13.9,0000.0,0004.29,0002.13,0001.85
2023-11-20 12:56:00,SystemResetWarning,0828.8,5.00,000.00,023.3,022.4,000.0,031.6,024.7,13.8,0000.0,0004.37,0002.18,0001.88
2023-11-20 12:57:00,SystemResetWarning,0828.7,5.00,000.00,023.3,022.5,000.0,031.6,024.7,13.7,0000.0,0004.36,0002.19,0001.89
2023-11-20 12:58:00,SystemResetWarning,0828.8,5.00,000.00,023.3,022.5,000.0,031.6,024.7,13.7,0000.0,0004.40,0002.20,0001.90
2023-11-20 12:59:00,SystemResetWarning,0828.8,5.00,000.00,023.3,022.5,000.0,031.6,024.7,13.6,0000.0,0004.74,0002.21,0001.90
